Hourly Data Report for December 17, 2019

EUREKA CLIMATE
NUNAVUT
Current Station Operator: ECCC - MSC

79°59'21.000" N
85°56'02.000" W
10.00 m
2401199
71613
NEK

Download Data

Hourly Data (December 2019)
Hourly Data Report for December 17, 2019
TIME
LST
Temp Definition
°C
Dew Point Definition
°C
Rel Hum Definition
%
Precip. Amount Definition
mm

Wind Dir Definition
10's deg

Wind Spd Definition
km/h
Visibility Definition
km
Stn Press Definition
kPa
Hmdx Definition


Wind Chill Definition


Weather Definition


00:00 -32.2 -35.4 73 0.0 10 11   102.41   -42 LegendNANA
01:00 -32.6 -35.8 73 0.0 10 10   102.44   -42 LegendNANA
02:00 -32.9 -36.1 73 0.0 10 6   102.45   -40 LegendNANA
03:00 -33.2 -36.5 72 0.0 11 7   102.47   -41 LegendNANA
04:00 -32.3 -35.3 75 0.0 8 4   102.48   -37 LegendNANA
05:00 -32.9 -36.1 73 0.0 12 8   102.49   -41 LegendNANA
06:00 -32.0 -35.2 74 0.0 10 6   102.47   -39 LegendNANA
07:00 -32.2 -35.2 74 0.0 11 2   102.45   -35 LegendNANA
08:00 -32.9 -36.1 73 0.0 11 8   102.45   -41 LegendNANA
09:00 -32.6 -35.8 73 0.0 7 5   102.47   -39 LegendNANA
10:00 -32.5 -35.7 73 0.0 6 5   102.44   -38 LegendNANA
11:00 -33.0 -36.2 73 0.0 11 6   102.42   -40 LegendNANA
12:00 -33.0 -36.2 74 0.0 6 5   102.42   -39 LegendNANA
13:00 -32.5 -35.7 73 0.0 7 4   102.44   -37 LegendNANA
14:00 -32.3 -35.4 74 0.0 10 3   102.43   -36 LegendNANA
15:00 -32.7 -35.8 74 0.0 10 6   102.45   -40 LegendNANA
16:00 -32.9 -36.1 73 0.0 4 7   102.43   -41 LegendNANA
17:00 -33.0 -36.2 73 0.0 11 5   102.44   -39 LegendNANA
18:00 -33.4 -36.6 73 0.0   0   102.45     LegendNANA
19:00 -32.8 -35.9 74 0.0 5 2   102.47   -35 LegendNANA
20:00 -33.8 -37.0 72 0.0 11 5   102.44   -40 LegendNANA
21:00 -33.8 -37.0 72 0.0 9 6   102.43   -41 LegendNANA
22:00 -33.3 -36.5 73 0.0 10 2   102.45   -36 LegendNANA
23:00 -33.5 -36.8 72 0.0 10 2   102.44   -36 LegendNANA

Notes on Data Quality.

Legend

  • E = Estimated
  • M = Missing
  • NA = Not Available*
  • [empty] = Indicates an unobserved value
Date modified: